Weather History for PANN - September, 2013

Change the Weather History Date:

Sunday, September 1, 2013

  Actual Average Record
Temperature  
Mean Temperature 56 °F -  
Max Temperature 72 °F 58 °F 80 °F (1974)
Min Temperature 41 °F 38 °F 35 °F (2007)
Degree Days  
Heating Degree Days 8    
Growing Degree Days 6 (Base 50)    
Moisture  
Dew Point 40 °F    
Average Humidity 79    
Maximum Humidity 100    
Minimum Humidity 56    
Precipitation  
Precipitation 0.08 in - - ()
Sea Level Pressure  
Sea Level Pressure 29.82 in    
Wind  
Wind Speed 4 mph (ENE)    
Max Wind Speed 12 mph    
Max Gust Speed -    
Visibility 10 miles    
Events Rain    
Averages and records for this station are not official NWS values.
T = Trace of Precipitation, MM = Missing Value Source: NWS Daily Summary

Daily Weather History Graph

Daily Weather History Graph

Search for Another Location

Airport or City:

Trip Planner

Search our weather history database for the weather conditions in past years. The results will help you decide how hot, cold, wet, or windy it might be!

Date:

Astronomy

Sep. 01, 2013 Rise Set
Actual Time 6:38 AM AKDT 9:11 PM AKDT
Civil Twilight 5:44 AM AKDT 10:05 PM AKDT
Nautical Twilight 4:28 AM AKDT 11:19 PM AKDT
Astronomical Twilight 2:28 AM AKDT 1:23 AM AKDT
Moon 2:14 AM AKDT (9/1) 7:36 PM AKDT (9/1)
Length of Visible Light 16h 20m
Length of Day
14h 33m
Waning Crescent, 13% of the Moon is Illuminated
Sep 1
Waning Crescent
Sep 5
New
Sep 12
First Quarter
Sep 19
Full
Sep 26
Last Quarter

Hourly Weather History & Observations

Time (AKDT) Temp. Windchill Dew Point Humidity Pressure Visibility Wind Dir Wind Speed Gust Speed Precip Events Conditions
12:53 AM 37.9 °F - 36.0 °F 93% 29.91 in - Calm Calm - N/A   Clear
1:53 AM 42.1 °F 40.2 °F 37.0 °F 82% 29.90 in - ENE 3.5 mph - N/A   Scattered Clouds
2:53 AM 39.9 °F - 36.0 °F 86% 29.89 in - Calm Calm - N/A   Mostly Cloudy
3:53 AM 41.0 °F 38.0 °F 36.0 °F 82% 29.89 in - East 4.6 mph - N/A   Overcast
4:53 AM 39.9 °F 35.1 °F 34.0 °F 79% 29.89 in - East 6.9 mph - N/A   Overcast
5:53 AM 39.9 °F 36.7 °F 34.0 °F 79% 29.88 in - East 4.6 mph - N/A   Overcast
6:53 AM 41.0 °F 37.1 °F 32.0 °F 70% 29.88 in - ENE 5.8 mph - 0.00 in Rain Light Rain
7:53 AM 39.9 °F 37.8 °F 35.1 °F 83% 29.87 in - ENE 3.5 mph - 0.01 in Rain Light Rain
8:53 AM 41.0 °F 38.0 °F 35.1 °F 79% 29.86 in - NE 4.6 mph - 0.03 in Rain Light Rain
9:53 AM 41.0 °F 39.0 °F 37.0 °F 86% 29.85 in - East 3.5 mph - 0.02 in Rain Light Rain
10:53 AM 43.0 °F 39.5 °F 37.0 °F 80% 29.85 in - East 5.8 mph - 0.00 in   Overcast
11:53 AM 43.0 °F 38.8 °F 37.0 °F 80% 29.84 in - East 6.9 mph - 0.00 in Rain Light Rain
12:53 PM 45.0 °F 39.7 °F 37.9 °F 76% 29.83 in - East 10.4 mph - 0.00 in   Overcast
1:53 PM 46.9 °F - 39.0 °F 74% 29.82 in - East 8.1 mph - 0.00 in Rain Light Rain
2:53 PM 46.9 °F - 39.9 °F 77% 29.81 in - East 6.9 mph - 0.00 in   Overcast
3:53 PM 48.0 °F - 39.9 °F 74% 29.80 in - ENE 6.9 mph - N/A   Overcast
4:53 PM 48.0 °F - 41.0 °F 77% 29.78 in - NE 5.8 mph - 0.00 in Rain Light Rain
5:53 PM 48.0 °F - 41.0 °F 77% 29.77 in - ENE 4.6 mph - 0.01 in Rain Light Rain
6:53 PM 48.0 °F - 41.0 °F 77% 29.75 in - ENE 4.6 mph - 0.00 in   Overcast
7:53 PM 46.9 °F - 42.1 °F 83% 29.73 in - ENE 4.6 mph - 0.00 in Rain Light Rain
8:53 PM 46.9 °F - 41.0 °F 80% 29.70 in - ENE 5.8 mph - 0.00 in Rain Light Rain
9:53 PM 46.9 °F - 39.9 °F 77% 29.68 in - ENE 4.6 mph - 0.00 in Rain Light Rain
10:53 PM 46.9 °F - 41.0 °F 80% 29.67 in - East 5.8 mph - 0.00 in   Overcast
11:53 PM 46.9 °F - 41.0 °F 80% 29.65 in - East 8.1 mph - 0.01 in Rain Light Rain